TimeEDT,TemperatureF,Dew PointF,Humidity,Sea Level PressureIn,VisibilityMPH,Wind Direction,Wind SpeedMPH,Gust SpeedMPH,PrecipitationIn,Events,Conditions,WindDirDegrees,DateUTC
12:15 AM,34.3,33.4,97,30.00,3.0,North,5.8,-,0.02,Rain,Heavy Rain,10,2013-04-05 04:15:00
12:35 AM,34.7,33.8,97,30.00,4.0,NNW,4.6,-,0.05,Rain,Rain,340,2013-04-05 04:35:00
12:55 AM,34.9,34.0,97,29.99,3.0,North,4.6,-,0.08,Rain,Heavy Rain,350,2013-04-05 04:55:00
1:15 AM,35.2,34.3,97,29.99,2.5,North,4.6,-,0.02,,Heavy Drizzle,360,2013-04-05 05:15:00
1:35 AM,35.6,34.7,97,29.99,3.0,North,3.5,-,0.05,,Heavy Drizzle,360,2013-04-05 05:35:00
1:55 AM,35.8,35.1,97,29.98,3.0,NNW,5.8,-,0.07,,Drizzle,340,2013-04-05 05:55:00
2:15 AM,36.0,35.2,97,29.96,5.0,North,3.5,-,0.01,,Drizzle,350,2013-04-05 06:15:00
2:35 AM,36.1,35.6,98,29.96,4.0,North,4.6,-,0.03,,Drizzle,360,2013-04-05 06:35:00
2:55 AM,36.1,35.6,98,29.96,3.0,Calm,Calm,-,0.05,,Drizzle,0,2013-04-05 06:55:00
3:15 AM,36.3,35.6,97,29.95,3.0,Calm,Calm,-,0.02,,Drizzle,0,2013-04-05 07:15:00
3:35 AM,36.5,35.6,97,29.95,4.0,Calm,Calm,-,0.03,,Drizzle,0,2013-04-05 07:35:00
3:55 AM,36.5,35.8,97,29.96,4.0,Calm,Calm,-,0.05,,Light Drizzle,0,2013-04-05 07:55:00
4:15 AM,36.5,35.8,97,29.95,4.0,Calm,Calm,-,0.01,,Light Drizzle,0,2013-04-05 08:15:00
4:35 AM,36.7,36.1,98,29.96,5.0,Calm,Calm,-,0.02,Rain,Light Rain,0,2013-04-05 08:35:00
4:55 AM,37.0,36.5,98,29.96,10.0,Calm,Calm,-,0.04,,Overcast,0,2013-04-05 08:55:00
5:15 AM,37.4,36.5,97,29.96,10.0,North,3.5,-,0.01,,Overcast,360,2013-04-05 09:15:00
5:35 AM,37.4,36.5,97,29.96,5.0,Calm,Calm,-,0.02,,Overcast,0,2013-04-05 09:35:00
5:55 AM,37.4,36.5,97,29.95,5.0,Calm,Calm,-,0.04,,Light Drizzle,0,2013-04-05 09:55:00
6:15 AM,37.6,36.9,97,29.95,10.0,Calm,Calm,-,0.01,,Overcast,0,2013-04-05 10:15:00
6:35 AM,37.8,37.0,97,29.95,10.0,Calm,Calm,-,0.02,,Overcast,0,2013-04-05 10:35:00
6:55 AM,37.4,36.5,97,29.94,10.0,Calm,Calm,-,0.02,,Overcast,0,2013-04-05 10:55:00
7:15 AM,37.8,37.0,97,29.95,10.0,Calm,Calm,-,N/A,,Overcast,0,2013-04-05 11:15:00
7:35 AM,37.9,37.4,98,29.95,5.0,Calm,Calm,-,0.01,,Overcast,0,2013-04-05 11:35:00
7:55 AM,37.9,37.4,98,29.96,5.0,Calm,Calm,-,0.01,,Overcast,0,2013-04-05 11:55:00
8:15 AM,38.3,37.4,97,29.97,10.0,Calm,Calm,-,N/A,,Overcast,0,2013-04-05 12:15:00
8:35 AM,39.2,38.5,97,29.98,7.0,SW,3.5,-,N/A,,Overcast,230,2013-04-05 12:35:00
8:55 AM,39.2,38.3,97,29.99,10.0,Calm,Calm,-,N/A,,Overcast,0,2013-04-05 12:55:00
9:15 AM,40.1,39.2,97,30.00,10.0,Calm,Calm,-,N/A,,Overcast,0,2013-04-05 13:15:00
9:35 AM,41.4,40.1,95,30.00,10.0,Calm,Calm,-,N/A,,Overcast,0,2013-04-05 13:35:00
9:55 AM,43.2,41.7,95,30.00,10.0,Calm,Calm,-,N/A,,Overcast,0,2013-04-05 13:55:00
10:15 AM,46.2,43.5,90,30.00,10.0,Calm,Calm,-,N/A,,Overcast,0,2013-04-05 14:15:00
10:35 AM,49.1,44.4,84,30.00,10.0,Calm,Calm,-,N/A,,Overcast,0,2013-04-05 14:35:00
10:55 AM,51.6,43.3,73,30.00,10.0,North,5.8,-,N/A,,Overcast,350,2013-04-05 14:55:00
11:15 AM,52.3,41.5,67,29.99,10.0,NNW,11.5,-,N/A,,Scattered Clouds,340,2013-04-05 15:15:00
11:35 AM,54.0,42.1,64,29.99,10.0,North,9.2,-,N/A,,Clear,350,2013-04-05 15:35:00
11:55 AM,54.7,40.5,59,29.99,10.0,NNW,6.9,-,N/A,,Scattered Clouds,340,2013-04-05 15:55:00
12:15 PM,56.3,41.0,57,29.98,10.0,North,8.1,-,N/A,,Scattered Clouds,350,2013-04-05 16:15:00
12:35 PM,58.1,41.2,53,29.97,10.0,NW,11.5,-,N/A,,Clear,320,2013-04-05 16:35:00
12:55 PM,58.1,39.2,49,29.97,10.0,North,10.4,16.1,N/A,,Clear,10,2013-04-05 16:55:00
1:15 PM,58.8,39.7,49,29.96,10.0,North,4.6,-,N/A,,Clear,360,2013-04-05 17:15:00
1:35 PM,59.9,36.7,42,29.95,10.0,NNW,9.2,-,N/A,,Clear,340,2013-04-05 17:35:00
1:55 PM,61.2,32.5,34,29.95,10.0,NNW,9.2,17.3,N/A,,Clear,330,2013-04-05 17:55:00
2:15 PM,62.6,30.7,30,29.94,10.0,North,9.2,-,N/A,,Clear,350,2013-04-05 18:15:00
2:35 PM,62.6,28.4,27,29.94,10.0,NW,4.6,-,N/A,,Clear,320,2013-04-05 18:35:00
2:55 PM,63.7,29.1,27,29.93,10.0,NNW,10.4,-,N/A,,Clear,330,2013-04-05 18:55:00
3:15 PM,62.1,28.0,28,29.93,10.0,NNW,12.7,18.4,N/A,,Clear,340,2013-04-05 19:15:00
3:35 PM,62.6,27.0,26,29.93,10.0,NNW,8.1,-,N/A,,Clear,330,2013-04-05 19:35:00
3:55 PM,62.6,29.5,29,29.93,10.0,NNW,12.7,18.4,N/A,,Clear,340,2013-04-05 19:55:00
4:15 PM,62.6,30.0,29,29.93,10.0,WNW,6.9,-,N/A,,Clear,300,2013-04-05 20:15:00
4:35 PM,63.1,30.2,29,29.93,10.0,NW,11.5,17.3,N/A,,Clear,320,2013-04-05 20:35:00
4:55 PM,62.6,30.7,30,29.93,10.0,NNW,11.5,17.3,N/A,,Clear,330,2013-04-05 20:55:00
5:15 PM,62.6,31.3,31,29.94,10.0,NW,10.4,13.8,N/A,,Clear,310,2013-04-05 21:15:00
5:35 PM,62.6,31.5,31,29.95,10.0,North,10.4,-,N/A,,Clear,360,2013-04-05 21:35:00
5:55 PM,62.6,31.8,32,29.95,10.0,NW,9.2,-,N/A,,Clear,320,2013-04-05 21:55:00
6:15 PM,62.6,31.5,31,29.95,10.0,NW,8.1,-,N/A,,Clear,320,2013-04-05 22:15:00
6:35 PM,62.6,30.6,30,29.95,10.0,NNW,10.4,-,N/A,,Clear,330,2013-04-05 22:35:00
6:55 PM,61.2,30.0,31,29.96,10.0,North,9.2,-,N/A,,Clear,350,2013-04-05 22:55:00
7:15 PM,59.7,30.4,33,29.97,10.0,NW,6.9,-,N/A,,Clear,320,2013-04-05 23:15:00
7:35 PM,57.0,31.3,38,29.97,10.0,NW,4.6,-,N/A,,Clear,310,2013-04-05 23:35:00
7:55 PM,52.9,32.7,46,29.98,10.0,NW,4.6,-,N/A,,Clear,310,2013-04-05 23:55:00
8:15 PM,53.6,32.0,44,29.99,10.0,NW,6.9,-,N/A,,Clear,320,2013-04-06 00:15:00
8:35 PM,51.3,32.5,49,30.00,10.0,NW,5.8,-,N/A,,Clear,310,2013-04-06 00:35:00
8:55 PM,50.2,32.0,50,30.01,10.0,Calm,Calm,-,N/A,,Clear,0,2013-04-06 00:55:00
9:15 PM,50.0,32.0,50,30.02,10.0,Calm,Calm,-,N/A,,Clear,0,2013-04-06 01:15:00
9:35 PM,46.2,34.5,64,30.04,10.0,Calm,Calm,-,N/A,,Clear,0,2013-04-06 01:35:00
9:55 PM,45.0,35.1,68,30.04,10.0,Calm,Calm,-,N/A,,Clear,0,2013-04-06 01:55:00
10:15 PM,43.9,33.4,67,30.05,10.0,Calm,Calm,-,N/A,,Clear,0,2013-04-06 02:15:00
10:35 PM,42.4,34.0,72,30.06,10.0,Calm,Calm,-,N/A,,Clear,0,2013-04-06 02:35:00
10:55 PM,42.1,33.3,71,30.06,10.0,NW,4.6,-,N/A,,Clear,320,2013-04-06 02:55:00
11:15 PM,42.3,32.7,69,30.06,10.0,NNW,3.5,-,N/A,,Clear,330,2013-04-06 03:15:00
11:35 PM,41.2,33.1,73,30.06,10.0,Calm,Calm,-,N/A,,Clear,0,2013-04-06 03:35:00
11:55 PM,39.7,32.9,77,30.07,10.0,Calm,Calm,-,N/A,,Clear,0,2013-04-06 03:55:00